Location: Allen Lane School
(37.8198°N, 89.7382°W)
Time: 05:52:49
(UTC+00:00)

Meteor 1-14 Rocket - Pass Details

Date: 30 June 2022
Orbit: 833 x 919 km, 81.3° (Epoch: 12 August)

Event Time Altitude Azimuth Distance (km) Brightness Sun altitude
Rises 09:39:11 0° 173° (S) 3,522 7.1 -10.6°
Reaches altitude 10° 09:41:42 10° 169° (S) 2,576 6.4 -10.2°
Maximum altitude 09:47:23 53° 94° (E) 1,091 5.1 -9.4°
Drops below altitude 10° 09:52:58 10° 19° (NNE) 2,538 7.7 -8.5°
Sets 09:55:27 0° 15° (NNE) 3,467 8.3 -8.1°
